Tracking 17857 objects as of 30-September-2016
HD Live streaming from Space Station
objects crossing your sky now

AMC-5 (GE-5)

Track AMC-5 (GE-5) now!
AMC-5 (GE-5) is classified as:


NORAD ID: 25516
Int'l Code: 1998-063B
Perigee: 36,046.5 km
Apogee: 36,071.3 km
Inclination: 4.9 °
Period: 1,449.7 minutes
Semi major axis: 42429 km
RCS: 9.3322 m2 (large)
Launch date: October 28, 1998
Source: SOCIETE EUROPEENNE DES SATELLITES (SES)
Launch site: FRENCH GUIANA (FRGUI)

Broadband internet, business television; 16 Ku-band; CONUS
Your satellite tracking list
Your tracking list is empty





NASA's NSSDC Master Catalog

Two Line Element Set (TLE):
1 25516U 98063B   16272.68760999  .00000027  00000-0  00000+0 0  9995
2 25516   4.9098  62.0764 0002933 147.5987 254.0180  0.99333305 65606
Source of the keplerian elements: AFSPC

N2YO: 595